ASTRA 2D

Last updated on Oct. 31, 2020, 5:53 a.m. UTC

1 26638U 00081A   20304.91326212  .00000071  00000-0  00000-0 0  9997
2 26638   6.0633  63.9393 0002009 153.6008 208.1508  1.00271275 32309
UTC
Height (km)
Latitude
Longitude
Inclination
Orbital Period
UTC large
Height (km)
Speed (km/s)
/
Latitude / Longitude
Inclination (degrees)
Orbital Period (minutes)
Azimuth
Elevation
Range (km)
Doppler Factor
iOS Compass Heading
iOS Angle

Next 30 passes for location: Hong Kong

Rise time Rise Azimuth (degrees) Set time Set Azimuth (degrees) Duration Max altitude (degrees)

No matching passes for this satellites